• en Belgique
  • Liste des pays
  • À 7 jours
  • Température de l'eau
  • Carte satellitaire
  • Carte météo
  • Widgets météo
  • user-avatar
    Se connecter

    Météo par heure à Constantine

    Ce jour, 21 Novembre, Mardi

    Heure Température Précipitation Vent Pression Humidité
    00:00 +11°C° 0 mm 1 m/s 714 mmHg 41%
    01:00 +10°C° 0 mm 1 m/s 713 mmHg 40%
    02:00 +10°C° 0 mm 1 m/s 713 mmHg 39%
    03:00 +10°C° 0 mm 1 m/s 713 mmHg 39%
    04:00 +10°C° 0 mm 1 m/s 713 mmHg 39%
    05:00 +9°C° 0 mm 1 m/s 713 mmHg 39%
    06:00 +9°C° 0 mm 1 m/s 713 mmHg 39%
    07:00 +11°C° 0 mm 1 m/s 714 mmHg 36%
    08:00 +13°C° 0 mm 1 m/s 714 mmHg 33%
    09:00 +15°C° 0 mm 1 m/s 714 mmHg 30%
    10:00 +16°C° 0 mm 1 m/s 714 mmHg 28%
    11:00 +19°C° 0 mm 1 m/s 714 mmHg 26%
    12:00 +20°C° 0 mm 1 m/s 714 mmHg 24%
    13:00 +20°C° 0 mm 1 m/s 714 mmHg 26%
    14:00 +20°C° 0 mm 1 m/s 714 mmHg 28%
    15:00 +20°C° 0 mm 1 m/s 713 mmHg 30%
    16:00 +18°C° 0 mm 1 m/s 713 mmHg 36%
    17:00 +15°C° 0 mm 1 m/s 713 mmHg 42%
    18:00 +13°C° 0 mm 1 m/s 713 mmHg 47%
    19:00 +12°C° 0 mm 1 m/s 713 mmHg 47%
    20:00 +12°C° 0 mm 1 m/s 713 mmHg 47%
    21:00 +12°C° 0 mm 1 m/s 713 mmHg 46%
    22:00 +11°C° 0 mm 1 m/s 713 mmHg 45%
    23:00 +11°C° 0 mm 1 m/s 713 mmHg 43%

    Demain, 22 Novembre, Mercredi

    Heure Température Précipitation Vent Pression Humidité
    00:00 +11°C° 0 mm 1 m/s 712 mmHg 41%
    01:00 +11°C° 0 mm 1 m/s 712 mmHg 40%
    02:00 +11°C° 0 mm 1 m/s 712 mmHg 39%
    03:00 +9°C° 0 mm 2 m/s 711 mmHg 38%
    04:00 +9°C° 0 mm 2 m/s 711 mmHg 38%
    05:00 +9°C° 0 mm 2 m/s 711 mmHg 38%
    06:00 +9°C° 0 mm 2 m/s 711 mmHg 38%
    07:00 +12°C° 0 mm 2 m/s 712 mmHg 36%
    08:00 +14°C° 0 mm 2 m/s 712 mmHg 34%
    09:00 +16°C° 0 mm 2 m/s 712 mmHg 33%
    10:00 +17°C° 0 mm 2 m/s 712 mmHg 29%
    11:00 +18°C° 0 mm 2 m/s 712 mmHg 26%
    12:00 +19°C° 0 mm 2 m/s 712 mmHg 23%
    13:00 +20°C° 0 mm 1 m/s 712 mmHg 25%
    14:00 +20°C° 0 mm 1 m/s 711 mmHg 26%
    15:00 +20°C° 0 mm 1 m/s 711 mmHg 28%
    16:00 +18°C° 0 mm 1 m/s 711 mmHg 30%
    17:00 +16°C° 0 mm 1 m/s 711 mmHg 31%
    18:00 +15°C° 0 mm 1 m/s 711 mmHg 32%
    19:00 +14°C° 0 mm 1 m/s 711 mmHg 33%
    20:00 +13°C° 0 mm 1 m/s 711 mmHg 33%
    21:00 +13°C° 0 mm 2 m/s 711 mmHg 33%
    22:00 +12°C° 0 mm 2 m/s 711 mmHg 34%
    23:00 +12°C° 0 mm 2 m/s 711 mmHg 35%

    Après-demain, 23 Novembre, Jeudi

    Heure Température Précipitation Vent Pression Humidité
    00:00 +10°C° 0 mm 2 m/s 711 mmHg 36%
    01:00 +10°C° 0 mm 2 m/s 711 mmHg 37%
    02:00 +10°C° 0 mm 2 m/s 710 mmHg 38%
    03:00 +10°C° 0 mm 2 m/s 710 mmHg 39%
    04:00 +10°C° 0 mm 1 m/s 710 mmHg 39%
    05:00 +10°C° 0 mm 1 m/s 711 mmHg 40%
    06:00 +10°C° 0 mm 1 m/s 711 mmHg 40%
    07:00 +12°C° 0 mm 1 m/s 711 mmHg 38%
    08:00 +13°C° 0 mm 1 m/s 712 mmHg 36%
    09:00 +15°C° 0 mm 1 m/s 713 mmHg 34%
    10:00 +16°C° 0 mm 1 m/s 713 mmHg 31%
    11:00 +18°C° 0 mm 1 m/s 713 mmHg 29%
    12:00 +19°C° 0 mm 1 m/s 713 mmHg 26%
    13:00 +19°C° 0 mm 1 m/s 713 mmHg 28%
    14:00 +19°C° 0 mm 1 m/s 713 mmHg 30%
    15:00 +19°C° 0 mm 1 m/s 713 mmHg 32%
    16:00 +16°C° 0 mm 1 m/s 713 mmHg 38%
    17:00 +15°C° 0 mm 1 m/s 713 mmHg 43%
    18:00 +13°C° 0 mm 1 m/s 713 mmHg 49%
    19:00 +12°C° 0 mm 1 m/s 713 mmHg 50%
    20:00 +12°C° 0 mm 1 m/s 713 mmHg 52%
    21:00 +12°C° 0 mm 1 m/s 713 mmHg 53%
    22:00 +11°C° 0 mm 1 m/s 713 mmHg 53%
    23:00 +11°C° 0 mm 1 m/s 713 mmHg 53%

    24 Novembre, Vendredi

    Heure Température Précipitation Vent Pression Humidité
    00:00 +11°C° 0 mm 1 m/s 713 mmHg 52%
    01:00 +11°C° 0 mm 1 m/s 713 mmHg 52%
    02:00 +10°C° 0 mm 1 m/s 713 mmHg 52%
    03:00 +10°C° 0 mm 1 m/s 713 mmHg 51%
    04:00 +10°C° 0 mm 1 m/s 713 mmHg 51%
    05:00 +10°C° 0 mm 1 m/s 713 mmHg 51%
    06:00 +10°C° 0 mm 1 m/s 713 mmHg 51%
    07:00 +12°C° 0 mm 1 m/s 713 mmHg 47%
    08:00 +14°C° 0 mm 1 m/s 714 mmHg 42%
    09:00 +16°C° 0 mm 1 m/s 715 mmHg 38%
    10:00 +18°C° 0 mm 1 m/s 715 mmHg 36%
    11:00 +19°C° 0 mm 1 m/s 715 mmHg 34%
    12:00 +20°C° 0 mm 1 m/s 714 mmHg 32%
    13:00 +20°C° 0 mm 1 m/s 714 mmHg 33%
    14:00 +20°C° 0 mm 1 m/s 714 mmHg 34%
    15:00 +20°C° 0 mm 1 m/s 714 mmHg 35%
    16:00 +19°C° 0 mm 1 m/s 714 mmHg 38%
    17:00 +16°C° 0 mm 1 m/s 713 mmHg 42%
    18:00 +14°C° 0 mm 1 m/s 713 mmHg 46%
    19:00 +14°C° 0 mm 1 m/s 714 mmHg 46%
    20:00 +14°C° 0 mm 2 m/s 714 mmHg 46%
    21:00 +13°C° 0 mm 2 m/s 714 mmHg 46%
    22:00 +13°C° 0 mm 2 m/s 714 mmHg 47%
    23:00 +13°C° 0 mm 2 m/s 714 mmHg 47%

    25 Novembre, Samedi

    Heure Température Précipitation Vent Pression Humidité
    00:00 +12°C° 0 mm 2 m/s 713 mmHg 48%
    01:00 +12°C° 0 mm 2 m/s 713 mmHg 50%
    02:00 +12°C° 0 mm 2 m/s 713 mmHg 51%
    03:00 +12°C° 0 mm 2 m/s 713 mmHg 53%
    04:00 +10°C° 0 mm 2 m/s 713 mmHg 54%
    05:00 +10°C° 0 mm 2 m/s 713 mmHg 55%
    06:00 +10°C° 0 mm 2 m/s 713 mmHg 57%
    07:00 +13°C° 0 mm 2 m/s 714 mmHg 54%
    08:00 +14°C° 0 mm 2 m/s 714 mmHg 51%
    09:00 +16°C° 0 mm 2 m/s 715 mmHg 48%
    10:00 +17°C° 0 mm 2 m/s 715 mmHg 44%
    11:00 +19°C° 0 mm 2 m/s 714 mmHg 40%
    12:00 +20°C° 0 mm 2 m/s 714 mmHg 36%
    13:00 +20°C° 0 mm 2 m/s 714 mmHg 36%
    14:00 +20°C° 0 mm 2 m/s 714 mmHg 37%
    15:00 +20°C° 0 mm 2 m/s 714 mmHg 37%
    16:00 +19°C° 0 mm 1 m/s 714 mmHg 41%
    17:00 +18°C° 0 mm 1 m/s 714 mmHg 45%
    18:00 +15°C° 0 mm 1 m/s 714 mmHg 49%
    19:00 +14°C° 0 mm 1 m/s 714 mmHg 50%
    20:00 +14°C° 0 mm 1 m/s 714 mmHg 51%
    21:00 +13°C° 0 mm 2 m/s 714 mmHg 52%
    22:00 +13°C° 0 mm 2 m/s 714 mmHg 54%
    23:00 +13°C° 0 mm 2 m/s 714 mmHg 55%

    26 Novembre, Dimanche

    Heure Température Précipitation Vent Pression Humidité
    00:00 +12°C° 0 mm 2 m/s 714 mmHg 57%
    01:00 +12°C° 0 mm 2 m/s 714 mmHg 57%
    02:00 +12°C° 0 mm 2 m/s 714 mmHg 58%
    03:00 +10°C° 0 mm 2 m/s 714 mmHg 59%
    04:00 +10°C° 0 mm 2 m/s 714 mmHg 59%
    05:00 +10°C° 0 mm 2 m/s 714 mmHg 59%
    06:00 +10°C° 0 mm 2 m/s 714 mmHg 59%
    07:00 +12°C° 0 mm 2 m/s 715 mmHg 54%
    08:00 +14°C° 0 mm 2 m/s 715 mmHg 50%
    09:00 +15°C° 0 mm 2 m/s 716 mmHg 46%
    10:00 +16°C° 0 mm 1 m/s 716 mmHg 42%
    11:00 +19°C° 0 mm 1 m/s 716 mmHg 37%
    12:00 +20°C° 0 mm 1 m/s 716 mmHg 33%
    13:00 +20°C° 0 mm 1 m/s 715 mmHg 34%
    14:00 +20°C° 0 mm 1 m/s 715 mmHg 35%
    15:00 +20°C° 0 mm 1 m/s 715 mmHg 35%
    16:00 +18°C° 0 mm 1 m/s 715 mmHg 41%
    17:00 +15°C° 0 mm 1 m/s 715 mmHg 47%
    18:00 +13°C° 0 mm 1 m/s 715 mmHg 53%
    19:00 +13°C° 0 mm 1 m/s 715 mmHg 54%
    20:00 +13°C° 0 mm 1 m/s 715 mmHg 55%
    21:00 +12°C° 0 mm 1 m/s 715 mmHg 55%
    22:00 +12°C° 0 mm 1 m/s 715 mmHg 55%
    23:00 +12°C° 0 mm 1 m/s 715 mmHg 54%
    Voir plus